Location: ?
(35.4064°N, 139.3593°E)
Time: 17:21:03
(UTC+00:00)

ACS3 Solar Sail - Pass Details

Date: 23 June 2024
Orbit: 992 x 1023 km, 97.4° (Epoch: 14 July)

Event Time Altitude Azimuth Distance (km) Brightness Sun altitude
Exits shadow 11:18:23 17° 116° (ESE) 2,294 6.2 -13.5°
Maximum altitude 11:22:01 29° 69° (ENE) 1,736 5.9 -14.1°
Drops below altitude 10° 11:27:13 10° 12° (NNE) 2,764 7.6 -14.8°
Sets 11:30:01 0° 1° (N) 3,715 8.5 -15.3°
